Regional Weather Roundup
Issued by NWS Sterling, VA

Home | Current Version | Previous Version | Graphics & Text | Print | Product List | Glossary On
Versions: 1 2 3 4 5 6 7 8 9 10 11 12 13 14 15 16 17 18 19 20 21 22 23 24 25 26 27 28 29 30 31 32 33 34 35 36 37 38 39 40 41 42 43 44 45 46 47 48 49 50
000
ASUS41 KLWX 101110
RWRLWX

REGIONAL WEATHER ROUNDUP
NATIONAL WEATHER SERVICE BALTIMORE MD/WASHINGTON DC
600 AM EST WED FEB 10 2016

Note: "FAIR" indicates few or no clouds below 12,000 feet
with no significant weather and/or obstructions to visibility.
 TC=TEMPERATURE CELSIUS

 * =Non NWS site. Station does not report precipitation (e.g. rain,
    snow, etc.), thunder, or fog.

DCZ001-MDZ009-015-VAZ040>042-051-053>054-101200-
WASHINGTON METRO

CITY           SKY/WX    TMP DP  RH WIND       PRES   REMARKS
WASHINGTON NAT CLOUDY    32  18  56 NW13      29.75R WCI  22
DULLES         CLOUDY    30  15  53 W18       29.74R WCI  18
ANDREWS AFB    PTCLDY    30  19  62 W13       29.72R WCI  20
FT BELVOIR     FAIR      31  17  55 W5        29.75R
QUANTICO       CLOUDY    32  19  58 W3        29.78R
COLLEGE PARK*  CLOUDY    32  19  59 W10       29.73R WCI  24
LEESBURG*      CLOUDY    32  21  64 NW18      29.74R WCI  20
MANASSAS*      CLOUDY    28  19  69 W6        29.75R
GAITHERSBURG*  MOCLDY    28  16  59 W9G17     29.75R WCI  20

$$

MDZ006>007-011-014-101200-
BALTIMORE METRO

CITY           SKY/WX    TMP DP  RH WIND       PRES   REMARKS
BWI AIRPORT    CLOUDY    29  21  72 W12       29.71R WCI  19
MD SCIENCE CTR   N/A     30  21  69 MISG      29.71R
MARTIN STATE   CLOUDY    30  27  86 SW9       29.72R WCI  22
ANNAPOLIS      CLOUDY    30  22  72 W9G17     29.73R WCI  22
FORT MEADE*    CLOUDY    30  23  74 W8        29.75R WCI  23

$$

MDZ012-015-019>023-101200-
MARYLAND EASTERN SHORE

CITY           SKY/WX    TMP DP  RH WIND       PRES   REMARKS
OCEAN CITY     FLURRIES  30  25  81 W9        29.70R WCI  22
SALISBURY      LGT SNOW  29  27  92 W9        29.72R FOG     WCI  20
BAY BRIDGE AP* FLURRIES  32  23  69 W7        29.74R
CAMBRIDGE*     CLOUDY    28  27  93 W7        29.73R

$$

MDZ017>025-101200-
SOUTHERN MARYLAND

CITY           SKY/WX    TMP DP  RH WIND       PRES   REMARKS
PATUXENT RIVER LGT SNOW  29  25  85 W8        29.75R WCI  21
ST INIGOES     CLOUDY    30  26  85 NW8       29.75R WCI  22
LEONARDTOWN*   CLOUDY    28  27  93 W5        29.76R

$$

MDZ003>005-101200-
NORTH CENTRAL MARYLAND

CITY           SKY/WX    TMP DP  RH WIND       PRES   REMARKS
FREDERICK*     NOT AVBL
HAGERSTOWN APT CLOUDY    28  18  66 W21       29.70R WCI  15
WESTMINSTER*   CLOUDY    27  25  93 W6        29.67R

$$

MDZ501>502-101200-
WESTERN MARYLAND

CITY           SKY/WX    TMP DP  RH WIND       PRES   REMARKS
OAKLAND*       CLOUDY    14  12  92 W15G23    29.61S FOG     WCI  -1
CUMBERLAND*    MOCLDY    28  16  59 NW12G28   29.78R WCI  18

$$

VAZ025>031-101200-
SHENANDOAH VALLEY

CITY           SKY/WX    TMP DP  RH WIND       PRES   REMARKS
WINCHESTER*    CLOUDY    30  16  55 W14G23    29.73R WCI  20
FRONT ROYAL*   CLOUDY    28  14  54 W5        29.72R
LURAY*         PTSUNNY   28  12  50 SW10      29.74R WCI  19
NEW MARKET*    CLOUDY    27  12  54 W5        29.74R
STAUNTON*      FAIR      26  15  63 CALM      29.76R
WAYNESBORO*    FAIR      22  10  59 W6        29.74R

$$

WVZ021-048>050-054>055-101200-
EASTERN WEST VIRGINIA PANHANDLE

CITY           SKY/WX    TMP DP  RH WIND       PRES   REMARKS
MARTINSBURG    CLOUDY    28  16  60 W15       29.72R WCI  16
PETERSBURG*    CLOUDY    26  13  58 CALM      29.77R

$$

VAZ036>039-050-101200-
CENTRAL FOOTHILLS

CITY           SKY/WX    TMP DP  RH WIND       PRES   REMARKS
CHARLOTTESVILL FAIR      29  11  47 W7        29.75R
CULPEPER*      CLOUDY    30  14  52 W7        29.76R
ORANGE*        MOCLDY    30  18  59 CALM      29.77R
GORDONSVILLE*  FAIR      29  13  50 SW3       29.75R
WARRENTON*     FAIR      28  20  71 SW3       29.74R

$$

VAZ055>057-101200-
NORTH AND CENTRAL PIEDMONT

CITY           SKY/WX    TMP DP  RH WIND       PRES   REMARKS
FREDERICKSBRG* FAIR      29  26  87 SW5       29.76R
STAFFORD*      FAIR      29  21  73 CALM      29.80R

$$

NCZ024-NYZ072-PAZ021-071-VAZ022-071-101200-
OTHER REGIONAL OBSERVATIONS

CITY           SKY/WX    TMP DP  RH WIND       PRES   REMARKS
NEW YORK CITY  CLOUDY    33  27  78 CALM      29.61R
PHILADELPHIA   LGT SNOW  31  27  85 W13       29.67R WCI  21
PITTSBURGH     LGT SNOW  22  16  78 SW9G20    29.73R WCI  12
ROANOKE        FAIR      24  10  55 NW21G30   29.83R WCI   9
RICHMOND       FAIR      26  22  84 SW6       29.78R
RALEIGH        CLEAR     26  13  57 SW7       29.89R

$$

ANZ530>537-101200-
MARINE OBSERVATIONS

STATION/POSITION TIME  TEMP    WIND        PRES
                       AIR SEA DIR/SP/G
                 (UTC) (F)     (DEG/KT/KT) (MB)
THOMAS PT LIGHT  NOT AVBL
BALT KEY BRIDGE  1000   30     260/ 12/ 15 1005.7R
COVE POINT       1000   27     320/  8/ 12 1007.4R
LEWISETTA        1000   30 41  310/  9/ 10 1007.1R
SOLOMONS ISLAND  1000   29 41  270/ 10/ 13   N/A
PINEY POINT      1018          330/ 16/ 18   N/A

$$




USA.gov is the U.S. government's official web portal to all federal, state and local government web resources and services.